KLM231 EHAM-EHEH

Flight info

Callsign KLM231
Flight time 0h 20m
Altitude 7000
Route LOPIK
Aircraft A21N/M-SDE2E3FGHIRWXY/LB1

Departure

Time 2026-05-05 12:32
Airport Amsterdam Airport Schiphol (EHAM)

Arrival

Time 2026-05-05 12:52
Airport Eindhoven Airport (EHEH)
Time Latitude Longitude Altitude Speed Heading
2026-05-05 12:15 52.30990 4.77356 1 ft 0 kts 184°
2026-05-05 12:24 52.30994 4.77357 1 ft 3 kts 184°
2026-05-05 12:24 52.31012 4.77359 1 ft 3 kts 184°
2026-05-05 12:25 52.31030 4.77361 1 ft 3 kts 184°
2026-05-05 12:25 52.31048 4.77362 1 ft 2 kts 184°
2026-05-05 12:25 52.31065 4.77357 1 ft 3 kts 132°
2026-05-05 12:25 52.31071 4.77339 1 ft 0 kts 92°
2026-05-05 12:26 52.31070 4.77345 1 ft 1 kts 92°
2026-05-05 12:26 52.31070 4.77381 1 ft 8 kts 92°
2026-05-05 12:26 52.31039 4.77473 1 ft 12 kts 156°
2026-05-05 12:26 52.30926 4.77477 1 ft 22 kts 183°
2026-05-05 12:27 52.30773 4.77462 1 ft 22 kts 183°
2026-05-05 12:27 52.30635 4.77397 1 ft 20 kts 229°
2026-05-05 12:27 52.30559 4.77206 0 ft 20 kts 238°
2026-05-05 12:27 52.30485 4.77012 0 ft 20 kts 237°
2026-05-05 12:28 52.30410 4.76819 1 ft 20 kts 238°
2026-05-05 12:28 52.30336 4.76624 1 ft 20 kts 238°
2026-05-05 12:28 52.30261 4.76427 1 ft 20 kts 238°
2026-05-05 12:28 52.30185 4.76229 1 ft 21 kts 237°
2026-05-05 12:29 52.30109 4.76031 1 ft 21 kts 238°
2026-05-05 12:29 52.30031 4.75831 1 ft 21 kts 238°
2026-05-05 12:29 52.29954 4.75632 1 ft 21 kts 238°
2026-05-05 12:29 52.29876 4.75428 1 ft 21 kts 238°
2026-05-05 12:30 52.29844 4.75214 1 ft 19 kts 290°
2026-05-05 12:30 52.29921 4.75049 1 ft 18 kts 311°
2026-05-05 12:30 52.30019 4.74865 1 ft 23 kts 311°
2026-05-05 12:30 52.30130 4.74658 1 ft 24 kts 311°
2026-05-05 12:31 52.30242 4.74452 1 ft 25 kts 311°
2026-05-05 12:31 52.30358 4.74237 1 ft 25 kts 311°
2026-05-05 12:31 52.30495 4.74070 1 ft 25 kts 349°
2026-05-05 12:31 52.30621 4.73923 1 ft 22 kts 321°
2026-05-05 12:32 52.30761 4.73811 3 ft 24 kts 347°
2026-05-05 12:32 52.31083 4.73819 3 ft 82 kts
2026-05-05 12:32 52.31921 4.73895 1 ft 157 kts
2026-05-05 12:32 52.33101 4.74001 592 ft 165 kts
2026-05-05 12:33 52.34221 4.74210 1638 ft 165 kts 15°
2026-05-05 12:33 52.35393 4.74905 2030 ft 193 kts 26°
2026-05-05 12:33 52.36638 4.76019 2487 ft 213 kts 40°
2026-05-05 12:33 52.37469 4.78006 3297 ft 218 kts 76°
2026-05-05 12:34 52.37431 4.80518 4189 ft 226 kts 99°
2026-05-05 12:34 52.36824 4.82943 4960 ft 238 kts 124°
2026-05-05 12:34 52.35537 4.84672 5596 ft 248 kts 157°
2026-05-05 12:34 52.33772 4.85177 6140 ft 265 kts 179°
2026-05-05 12:35 52.31934 4.85131 6676 ft 272 kts 182°
2026-05-05 12:35 52.30036 4.85017 6904 ft 274 kts 182°
2026-05-05 12:35 52.28129 4.84919 6940 ft 275 kts 181°
2026-05-05 12:35 52.26223 4.85132 6933 ft 275 kts 166°
2026-05-05 12:36 52.24490 4.86398 6942 ft 274 kts 146°
2026-05-05 12:36 52.22949 4.88257 6944 ft 275 kts 142°
2026-05-05 12:36 52.21453 4.90222 6941 ft 276 kts 141°
2026-05-05 12:36 52.19959 4.92195 6939 ft 276 kts 141°
2026-05-05 12:37 52.18480 4.94138 6939 ft 276 kts 141°
2026-05-05 12:37 52.16986 4.96087 6932 ft 275 kts 142°
2026-05-05 12:37 52.15492 4.98029 6931 ft 274 kts 142°
2026-05-05 12:37 52.14002 4.99961 6939 ft 274 kts 142°
2026-05-05 12:38 52.12510 5.01891 6935 ft 274 kts 142°
2026-05-05 12:38 52.11011 5.03825 6930 ft 275 kts 142°
2026-05-05 12:38 52.09398 5.05466 6925 ft 274 kts 157°
2026-05-05 12:38 52.07596 5.06481 6929 ft 274 kts 164°
2026-05-05 12:39 52.05759 5.07311 6926 ft 274 kts 165°
2026-05-05 12:39 52.03910 5.08119 6927 ft 275 kts 165°
2026-05-05 12:39 52.02062 5.08929 6923 ft 274 kts 165°
2026-05-05 12:39 52.00215 5.09700 6924 ft 274 kts 169°
2026-05-05 12:40 51.98343 5.10278 6929 ft 274 kts 169°
2026-05-05 12:40 51.96475 5.10840 6922 ft 273 kts 169°
2026-05-05 12:40 51.94626 5.11378 6926 ft 273 kts 170°
2026-05-05 12:40 51.92749 5.11912 6928 ft 274 kts 169°
2026-05-05 12:41 51.90868 5.12440 6923 ft 274 kts 169°
2026-05-05 12:41 51.88983 5.12966 6919 ft 274 kts 170°
2026-05-05 12:41 51.87103 5.13488 6922 ft 275 kts 170°
2026-05-05 12:41 51.85215 5.14010 6923 ft 274 kts 169°
2026-05-05 12:42 51.83337 5.14529 6919 ft 274 kts 170°
2026-05-05 12:42 51.81448 5.15050 6924 ft 275 kts 170°
2026-05-05 12:42 51.79562 5.15570 6923 ft 275 kts 170°
2026-05-05 12:42 51.77676 5.16089 6918 ft 275 kts 170°
2026-05-05 12:43 51.75795 5.16606 6637 ft 274 kts 169°
2026-05-05 12:43 51.73922 5.17120 6196 ft 272 kts 170°
2026-05-05 12:43 51.72057 5.17632 5704 ft 272 kts 170°
2026-05-05 12:43 51.70189 5.18144 5220 ft 272 kts 169°
2026-05-05 12:44 51.68344 5.18648 4715 ft 273 kts 169°
2026-05-05 12:44 51.66437 5.19170 4229 ft 274 kts 168°
2026-05-05 12:44 51.64622 5.19666 4047 ft 262 kts 168°
2026-05-05 12:44 51.62866 5.20146 3925 ft 249 kts 169°
2026-05-05 12:45 51.61209 5.20596 3877 ft 233 kts 168°
2026-05-05 12:45 51.59672 5.21009 3646 ft 218 kts 167°
2026-05-05 12:45 51.58203 5.21409 3332 ft 208 kts 167°
2026-05-05 12:45 51.56827 5.21783 3189 ft 191 kts 167°
2026-05-05 12:46 51.55565 5.22125 2972 ft 179 kts 166°
2026-05-05 12:46 51.54355 5.22457 2616 ft 175 kts 166°
2026-05-05 12:46 51.53158 5.22787 2220 ft 174 kts 166°
2026-05-05 12:46 51.51992 5.23106 2010 ft 167 kts 166°
2026-05-05 12:47 51.50865 5.23413 1984 ft 160 kts 166°
2026-05-05 12:47 51.49778 5.23708 1995 ft 158 kts 165°
2026-05-05 12:47 51.48694 5.24004 1998 ft 157 kts 165°
2026-05-05 12:47 51.47620 5.24297 1993 ft 156 kts 166°
2026-05-05 12:48 51.46545 5.24590 1993 ft 157 kts 166°
2026-05-05 12:48 51.45464 5.24884 2004 ft 158 kts 166°
2026-05-05 12:48 51.44381 5.25178 1995 ft 157 kts 166°
2026-05-05 12:48 51.43303 5.25469 1993 ft 157 kts 165°
2026-05-05 12:49 51.42226 5.25759 1990 ft 157 kts 165°
2026-05-05 12:49 51.41149 5.26051 1993 ft 157 kts 165°
2026-05-05 12:49 51.40067 5.26345 1994 ft 158 kts 166°
2026-05-05 12:49 51.39009 5.26762 2000 ft 155 kts 150°
2026-05-05 12:50 51.38278 5.27889 1967 ft 144 kts 106°
2026-05-05 12:50 51.38424 5.29341 2012 ft 135 kts 55°
2026-05-05 12:50 51.39008 5.30524 1992 ft 137 kts 46°
2026-05-05 12:50 51.39726 5.31580 1740 ft 139 kts 38°
2026-05-05 12:51 51.40542 5.32459 1268 ft 150 kts 32°
2026-05-05 12:51 51.41392 5.33419 782 ft 149 kts 37°
2026-05-05 12:51 51.42197 5.34342 582 ft 138 kts 33°
2026-05-05 12:51 51.42986 5.35203 369 ft 141 kts 36°
2026-05-05 12:52 51.43792 5.36105 176 ft 141 kts 33°
2026-05-05 12:52 51.44576 5.36969 88 ft 129 kts 33°
2026-05-05 12:52 51.45072 5.37519 73 ft 52 kts 35°
2026-05-05 12:52 51.45330 5.37806 85 ft 27 kts 36°
2026-05-05 12:53 51.45368 5.37894 83 ft 10 kts 110°
2026-05-05 12:53 51.45321 5.38004 84 ft 10 kts 124°
2026-05-05 12:53 51.45283 5.38093 85 ft 10 kts 124°
2026-05-05 12:53 51.45246 5.38190 82 ft 11 kts 107°
2026-05-05 12:54 51.45314 5.38343 84 ft 9 kts 34°
2026-05-05 12:54 51.45349 5.38381 82 ft 10 kts 34°
2026-05-05 12:54 51.45411 5.38385 73 ft 9 kts 321°
2026-05-05 12:55 51.45450 5.38303 76 ft 10 kts 306°
2026-05-05 12:55 51.45493 5.38209 69 ft 11 kts 305°
2026-05-05 12:55 51.45536 5.38109 86 ft 10 kts 304°
2026-05-05 12:55 51.45575 5.38018 85 ft 11 kts 304°
2026-05-05 12:56 51.45613 5.37933 82 ft 0 kts 314°
2026-05-05 12:57 51.45616 5.37928 82 ft 8 kts 316°
2026-05-05 12:57 51.45656 5.37912 83 ft 8 kts 12°
2026-05-05 12:57 51.45711 5.37956 85 ft 12 kts 33°
2026-05-05 12:58 51.45822 5.38077 83 ft 24 kts 34°
2026-05-05 12:58 51.45948 5.38218 82 ft 14 kts 35°
2026-05-05 12:58 51.45992 5.38300 86 ft 6 kts 85°
2026-05-05 12:58 51.45991 5.38309 85 ft 0 kts 101°
2026-05-05 12:59 51.45985 5.38331 83 ft 8 kts 118°
2026-05-05 12:59 51.45949 5.38425 85 ft 12 kts 125°
2026-05-05 12:59 51.45900 5.38536 83 ft 12 kts 125°
2026-05-05 13:00 51.45785 5.38773 69 ft 14 kts 141°
2026-05-05 13:00 51.45727 5.38876 75 ft 6 kts 125°
2026-05-05 13:01 51.45727 5.38878 76 ft 0 kts 125°